Weather in Bryukhoveckaya

Russia / Krasnodar Krai     45°48′07″N   38°59′50″E
temp.,
°C
wind,
m/s
gust,
m/s
humid.,
%
clouds,
%
prec.,
mm/h
press.,
hPa
HPBL,
m
13 may, thu
thu1300:00+11ese22895 0.0 101317
03:00+10ese22900 0.0 101212
06:00+11e22870 0.0 101317
09:00+17ese22725 0.0 1013344
12:00+21ene336163 0.0 1012688
15:00+23e4562100 0.0 1012884
18:00+21ene3779100 0.0 1012193
21:00+17ene411885 0.0 1011182
14 may, fri
fri1400:00+15e413920 0.0 1010222
03:00+14ese49930 0.0 1010136
06:00+14se338835 0.0 101046
09:00+22se126685 0.0 1010263
12:00+26ese225648 0.0 1011631
15:00+28ese12525 0.0 1010933
18:00+27nne116794 0.0 101011
21:00+18nw47720 0.0 1011117
15 may, sat
sat1500:00+17nnw35710 0.0 101179
03:00+15wnw36710 0.0 1013103
06:00+15nne35744 0.0 101380
09:00+21n236724 0.0 1014351
12:00+24nne23585 0.0 1014838
15:00+26ne33585 0.0 10131201
18:00+25nne24725 0.0 1012170
21:00+19ne36785 0.0 101283
16 may, sun
sun1600:00+18nne477466 0.0 1011115
03:00+17nne3383100 0.0 101153
06:00+17ene369178 0.0 1010135
09:00+23ene34752 0.0 1009417
12:00+26ene4564100 0.0 1008803
15:00+26ene4567100 0.0 10071026
18:00+24ene4877100 0.0 1006304
21:00+20ene37820 0.0 1005103
17 may, mon
mon1700:00+18ene36855 0.0 100495
03:00+16e47705 0.0 1004112
06:00+16e347836 0.0 100478
09:00+21se116781 0.0 1005300
12:00+26wsw3466100 0.0 1006860
15:00+27ssw465299 0.0 10061121
18:00+21sse5975100 0.0 1007232
21:00+18w2279100 0.0 100831